Temp
62 65 76 75 74 73 72 72 72 72 72 72 72 72 73 73 74 74 75 75 75 75 75 75 76 76 76 76 77 78 78 78 78 78 79 79 79 79 80 79 79 79 81
64 68 75 75 73 73 72 72 71 71 71 71 71 72 72 73 73 73 74 74 74 75 75 75 75 75 75 75 75 77 78 78 77 78 78 77 77 78 79 79 78 77 80
66 68 67 74 73 72 72 71 71 70 70 71 71 71 72 72 72 72 73 73 74 74 74 74 74 74 74 74 75 75 77 77 77 77 77 74 73 77 79 79 78 79 79
67 66 66 74 73 72 71 70 70 70 70 70 69 69 69 70 70 71 72 73 73 74 74 74 74 74 73 73 74 75 75 77 77 76 73 75 76 79 81 80 79 79 79
64 65 67 73 72 72 71 70 69 69 69 68 67 67 67 68 68 69 70 70 70 72 73 73 73 73 73 72 72 74 75 74 75 75 72 72 72 77 80 81 80 79 79
63 64 67 72 72 71 70 69 69 69 69 67 67 67 67 68 67 67 68 68 68 69 70 72 72 73 72 72 72 73 74 74 73 70 67 69 71 76 79 80 78 79 79
60 61 62 70 70 69 69 68 68 69 68 67 66 66 67 68 66 66 68 68 69 69 68 69 70 71 72 71 71 71 73 74 72 68 67 67 68 76 78 79 78 79 79
59 60 60 67 68 67 67 67 68 68 67 66 65 65 65 65 64 64 65 65 67 68 68 69 69 69 70 70 71 71 72 72 73 68 66 67 71 76 79 78 77 78 79
58 59 56 56 62 64 64 65 66 65 64 64 63 62 63 62 61 61 61 62 64 65 66 67 67 68 68 69 70 70 71 71 70 67 66 67 71 75 78 77 77 77 78
57 56 55 54 55 54 54 63 63 63 62 62 61 60 60 59 59 58 59 60 62 63 64 65 65 66 67 67 68 69 70 70 64 63 64 65 71 75 76 75 75 76 76
57 54 54 53 53 52 55 58 57 60 61 60 58 58 56 54 55 55 59 60 60 61 61 62 62 63 64 65 67 67 67 62 60 61 63 67 71 75 76 75 76 76 75
51 52 52 51 50 51 58 50 49 52 48 49 50 49 49 49 50 57 55 58 58 58 59 59 59 60 58 56 58 62 60 58 59 61 63 68 71 75 76 76 75 75 76
49 51 52 50 50 49 49 48 46 47 46 47 48 47 48 50 49 52 51 51 49 54 51 52 51 52 51 52 53 56 58 58 58 61 64 69 71 75 76 76 75 75 75
49 50 51 51 49 48 47 46 46 46 47 45 47 48 46 46 48 51 50 51 46 50 50 51 49 49 50 51 52 53 56 55 54 55 56 68 71 74 75 75 75 75 75
47 49 50 50 48 48 47 46 45 45 45 45 46 47 46 46 49 47 48 50 49 50 49 49 50 50 49 49 51 52 53 55 56 57 54 66 70 73 74 74 75 75 75
48 49 49 51 49 48 46 45 45 45 45 45 45 45 48 46 45 46 47 49 49 49 48 49 49 49 50 49 49 51 51 53 55 56 55 55 67 71 73 74 74 74 73
45 48 49 52 49 47 46 45 45 45 46 44 46 45 46 48 43 44 45 45 47 48 48 48 49 49 49 50 49 50 51 52 54 55 56 55 58 68 71 73 73 74 73
45 46 48 52 48 47 45 45 45 45 43 43 45 44 48 46 45 45 44 43 46 47 47 45 46 46 47 47 48 49 48 50 51 52 55 55 55 59 64 71 72 73 73
46 46 46 47 47 46 45 45 44 44 44 44 44 44 46 46 46 43 44 45 46 45 45 45 44 45 45 45 46 49 50 47 47 53 52 54 53 56 55 64 70 71 72
46 46 46 46 46 45 44 43 42 42 42 42 45 48 46 45 46 45 46 45 45 43 43 44 44 44 44 45 47 47 47 49 47 47 49 54 53 55 55 56 57 60 70
45 45 45 45 44 44 41 41 39 38 39 40 48 48 48 47 47 46 45 44 45 42 42 43 43 43 43 45 43 43 45 49 48 46 48 48 51 54 54 54 54 55 59
43 44 44 45 44 44 42 41 40 39 39 42 46 46 44 48 46 46 43 42 43 42 42 42 42 42 43 44 41 41 34 39 43 46 47 49 49 51 53 56 56 55 54
41 42 45 44 44 44 43 42 41 40 40 40 42 41 41 46 44 43 43 45 43 42 41 41 42 42 40 43 44 41 35 36 38 44 45 46 48 47 49 52 55 58 55
42 43 44 45 44 47 43 41 38 36 37 38 39 40 40 43 42 42 43 45 44 43 42 42 43 43 42 39 42 45 44 42 37 36 43 44 46 49 48 51 56 58 55
43 42 43 44 44 44 43 42 39 36 38 40 39 39 40 41 43 43 45 44 43 43 42 42 42 43 43 42 42 42 42 42 43 39 37 40 44 46 47 47 54 55 57
42 43 43 43 43 43 42 42 38 36 36 37 37 37 40 40 43 45 44 43 42 42 42 42 42 43 44 44 44 43 42 40 40 40 38 39 39 45 46 46 48 54 55
MSLP
1024.57 1024.30 1023.83 1023.84 1023.88 1023.75 1023.44 1023.07 1022.73 1022.38 1022.16 1021.83 1021.53 1021.23 1020.87 1020.60 1020.27 1020.07 1019.65 1019.43 1019.28 1019.09 1018.83 1018.62 1018.35 1018.15 1017.81 1017.48 1017.06 1016.76 1016.46 1016.20 1016.00 1015.88 1015.79 1015.76 1015.68 1015.59 1015.54 1015.56 1015.68 1015.64 1015.56
1024.34 1024.14 1023.93 1023.91 1023.96 1023.83 1023.58 1023.34 1023.01 1022.65 1022.21 1021.87 1021.64 1021.29 1020.96 1020.59 1020.24 1019.91 1019.73 1019.58 1019.26 1018.91 1018.74 1018.61 1018.48 1018.26 1017.96 1017.62 1017.26 1016.91 1016.62 1016.28 1015.97 1015.86 1015.64 1015.76 1015.81 1015.71 1015.55 1015.47 1015.54 1015.64 1015.46
1024.22 1024.17 1024.13 1023.85 1023.88 1023.73 1023.58 1023.38 1023.13 1022.87 1022.58 1022.17 1021.72 1021.33 1021.02 1020.67 1020.36 1020.04 1019.70 1019.17 1018.88 1018.81 1018.63 1018.46 1018.34 1018.32 1018.11 1017.71 1017.28 1016.95 1016.54 1016.27 1015.98 1015.80 1015.64 1015.64 1015.64 1015.57 1015.44 1015.37 1015.41 1015.45 1015.47
1024.18 1024.15 1024.04 1023.81 1023.80 1023.69 1023.53 1023.42 1023.21 1022.90 1022.57 1022.23 1022.04 1021.71 1021.22 1020.80 1020.46 1020.18 1019.70 1019.11 1018.72 1018.42 1018.24 1018.10 1018.09 1017.95 1017.97 1017.83 1017.41 1016.93 1016.58 1016.14 1015.96 1015.80 1015.66 1015.39 1015.31 1015.02 1014.97 1015.08 1015.18 1015.24 1015.28
1024.25 1024.14 1023.97 1023.83 1023.77 1023.65 1023.55 1023.35 1023.05 1022.71 1022.41 1022.29 1021.97 1021.68 1021.30 1020.89 1020.39 1019.96 1019.59 1019.22 1018.89 1018.40 1018.01 1017.77 1017.64 1017.64 1017.67 1017.70 1017.61 1017.04 1016.63 1016.26 1015.88 1015.66 1015.61 1015.40 1015.13 1014.90 1014.69 1014.48 1014.68 1014.92 1015.03
1024.49 1024.32 1024.14 1023.93 1023.86 1023.69 1023.50 1023.39 1023.11 1022.66 1022.29 1022.16 1021.91 1021.55 1021.11 1020.63 1020.49 1020.22 1019.73 1019.47 1019.16 1018.86 1018.32 1017.75 1017.48 1017.38 1017.25 1017.37 1017.31 1017.06 1016.46 1016.17 1015.95 1015.77 1015.62 1015.34 1015.02 1014.59 1014.42 1014.25 1014.35 1014.53 1014.70
1024.75 1024.58 1024.39 1024.14 1024.06 1023.91 1023.66 1023.38 1022.92 1022.44 1022.22 1022.13 1022.06 1021.73 1021.16 1020.63 1020.60 1020.32 1019.57 1019.08 1018.74 1018.49 1018.30 1017.85 1017.52 1017.17 1017.04 1017.08 1017.14 1016.96 1016.48 1016.04 1015.85 1015.78 1015.56 1015.26 1014.88 1014.36 1014.06 1013.93 1014.09 1014.21 1014.36
1024.89 1024.70 1024.63 1024.44 1024.27 1024.13 1023.95 1023.52 1022.92 1022.44 1022.30 1022.20 1022.12 1022.02 1021.54 1021.21 1021.17 1020.87 1020.20 1019.60 1018.90 1018.29 1017.91 1017.71 1017.50 1017.26 1016.97 1016.82 1016.69 1016.57 1016.21 1015.97 1015.57 1015.69 1015.60 1015.22 1014.77 1014.10 1013.66 1013.67 1013.80 1013.95 1014.02
1024.93 1024.81 1024.91 1024.77 1024.61 1024.49 1024.28 1023.87 1023.42 1023.31 1023.05 1022.68 1022.47 1022.34 1021.84 1021.62 1021.72 1021.32 1020.82 1020.21 1019.39 1018.63 1018.19 1017.69 1017.41 1017.25 1016.92 1016.51 1016.19 1015.96 1015.89 1015.63 1015.38 1015.52 1015.49 1015.14 1014.64 1014.00 1013.24 1013.32 1013.42 1013.55 1013.64
1025.27 1025.23 1025.16 1025.04 1024.89 1024.81 1024.61 1024.29 1023.95 1023.78 1023.34 1023.17 1023.22 1022.93 1022.30 1022.16 1021.86 1021.59 1020.95 1020.48 1019.70 1019.00 1018.25 1017.78 1017.52 1017.11 1016.77 1016.29 1015.96 1015.53 1015.26 1015.11 1015.19 1015.44 1015.35 1015.05 1014.47 1013.94 1013.45 1013.22 1013.19 1013.22 1013.39
1025.56 1025.43 1025.29 1025.24 1025.13 1025.03 1024.73 1024.60 1024.52 1024.19 1023.69 1023.48 1023.32 1022.99 1022.61 1022.14 1021.72 1021.46 1020.85 1020.37 1019.89 1019.40 1018.94 1018.28 1017.77 1017.31 1016.69 1016.11 1015.70 1015.45 1015.31 1015.04 1015.13 1015.23 1015.06 1014.81 1014.20 1013.68 1013.23 1013.09 1013.07 1013.09 1013.16
1025.91 1025.58 1025.61 1025.47 1025.44 1025.21 1024.89 1024.82 1024.59 1024.22 1023.94 1023.65 1023.15 1022.94 1022.70 1022.32 1021.86 1021.22 1021.08 1020.58 1020.15 1019.66 1019.12 1018.79 1018.34 1017.76 1017.62 1017.19 1016.48 1015.70 1015.35 1015.14 1015.03 1014.97 1014.72 1014.26 1013.77 1013.05 1012.92 1012.82 1012.90 1012.93 1012.94
1026.01 1025.77 1025.69 1025.62 1025.45 1025.38 1025.21 1024.89 1024.58 1024.14 1023.79 1023.59 1023.36 1023.06 1022.67 1022.20 1021.66 1021.19 1020.90 1020.53 1020.33 1019.80 1019.52 1019.01 1018.38 1018.05 1017.80 1017.35 1016.99 1016.25 1015.39 1014.90 1014.68 1014.45 1014.02 1013.66 1013.28 1012.72 1012.58 1012.62 1012.64 1012.73 1012.84
1026.15 1026.01 1025.73 1025.55 1025.44 1025.24 1025.11 1024.92 1024.53 1023.98 1023.66 1023.59 1023.27 1022.86 1022.54 1022.13 1021.62 1021.10 1020.77 1020.37 1020.21 1019.72 1019.25 1018.83 1018.45 1018.05 1017.52 1017.03 1016.61 1016.23 1015.67 1014.83 1014.54 1014.12 1013.77 1013.35 1012.80 1012.41 1012.32 1012.32 1012.35 1012.38 1012.50
1026.40 1026.06 1025.96 1025.63 1025.23 1025.14 1025.11 1024.89 1024.42 1023.95 1023.72 1023.54 1023.26 1022.80 1022.30 1021.96 1021.49 1021.15 1020.71 1020.21 1019.95 1019.62 1019.20 1018.69 1018.20 1017.64 1017.28 1016.83 1016.36 1016.05 1015.46 1014.71 1014.09 1013.59 1013.23 1012.91 1012.59 1012.08 1012.05 1012.05 1012.11 1012.20 1012.07
1026.46 1026.14 1025.90 1025.62 1025.42 1025.26 1025.13 1024.91 1024.52 1024.11 1023.86 1023.56 1023.20 1022.76 1022.26 1021.96 1021.67 1021.26 1020.73 1020.21 1019.75 1019.39 1018.92 1018.48 1017.97 1017.48 1016.99 1016.62 1016.12 1015.43 1014.93 1014.61 1013.97 1013.34 1012.99 1012.78 1012.48 1012.11 1011.83 1011.76 1011.97 1012.04 1012.05
1026.47 1026.25 1025.93 1025.55 1025.54 1025.28 1025.12 1024.86 1024.51 1024.19 1023.83 1023.54 1023.14 1022.72 1022.45 1022.03 1021.55 1021.19 1020.73 1020.30 1019.56 1019.22 1018.72 1018.22 1017.55 1017.07 1016.61 1016.07 1015.62 1014.98 1014.71 1014.36 1013.94 1013.41 1012.89 1012.57 1012.34 1011.80 1011.70 1011.64 1011.81 1011.78 1012.16
1026.50 1026.40 1026.22 1025.72 1025.53 1025.29 1025.13 1024.89 1024.50 1024.14 1023.83 1023.60 1023.21 1022.99 1022.57 1022.12 1021.51 1021.14 1020.65 1020.16 1019.59 1019.01 1018.47 1017.95 1017.41 1016.80 1016.31 1016.01 1015.52 1015.10 1014.46 1013.96 1013.91 1013.64 1012.84 1012.08 1012.18 1011.88 1011.63 1011.49 1011.58 1011.77 1012.06
1026.62 1026.51 1026.39 1025.90 1025.70 1025.42 1025.18 1024.80 1024.52 1024.36 1024.07 1023.84 1023.36 1023.05 1022.63 1022.12 1021.54 1021.06 1020.47 1019.85 1019.37 1018.93 1018.35 1017.78 1017.18 1016.79 1016.08 1015.84 1015.50 1014.76 1014.27 1014.02 1013.68 1013.29 1013.01 1012.40 1011.94 1011.75 1011.60 1011.56 1011.47 1011.82 1011.91
1026.68 1026.53 1026.34 1026.04 1025.85 1025.47 1025.22 1024.79 1024.57 1024.41 1024.18 1023.86 1023.38 1022.95 1022.64 1021.98 1021.27 1020.65 1020.11 1019.65 1019.12 1018.76 1018.08 1017.65 1017.06 1016.60 1016.24 1015.65 1015.33 1014.72 1014.05 1013.53 1013.24 1013.03 1012.77 1012.31 1011.98 1011.88 1011.58 1011.43 1011.57 1011.79 1012.12
1026.79 1026.62 1026.46 1026.16 1025.91 1025.55 1025.25 1024.77 1024.53 1024.44 1024.01 1023.63 1023.04 1022.81 1022.26 1021.58 1020.97 1020.38 1019.85 1019.36 1018.82 1018.52 1018.07 1017.49 1016.92 1016.32 1015.95 1015.54 1015.16 1014.66 1013.91 1012.97 1012.56 1012.41 1012.38 1012.33 1012.10 1011.75 1011.65 1011.46 1011.59 1011.92 1012.34
1027.15 1026.86 1026.58 1026.24 1025.94 1025.55 1025.17 1024.76 1024.59 1024.30 1023.89 1023.25 1022.59 1022.26 1022.02 1021.25 1020.77 1020.20 1019.68 1019.19 1018.62 1018.12 1017.63 1017.21 1016.72 1016.11 1015.63 1015.43 1014.93 1014.92 1014.23 1013.02 1012.42 1011.92 1011.91 1011.98 1011.86 1011.75 1011.81 1011.51 1011.46 1011.67 1012.35
1027.26 1027.00 1026.63 1026.28 1025.90 1025.45 1025.04 1024.72 1024.39 1024.07 1023.70 1023.21 1022.73 1022.30 1021.71 1021.08 1020.52 1019.94 1019.28 1018.58 1018.18 1017.83 1017.28 1016.93 1016.41 1015.64 1015.33 1014.98 1014.90 1015.01 1014.75 1014.13 1013.85 1012.34 1012.02 1011.83 1011.83 1011.89 1011.59 1011.68 1011.76 1011.46 1011.97
1027.30 1026.88 1026.55 1026.24 1025.84 1025.42 1025.00 1024.78 1024.65 1024.49 1024.13 1023.51 1022.94 1022.35 1021.64 1020.86 1020.14 1019.45 1018.77 1018.00 1017.48 1017.23 1016.98 1016.63 1016.14 1015.61 1015.34 1014.93 1014.86 1014.75 1014.65 1014.85 1014.43 1013.87 1012.75 1012.36 1012.13 1011.84 1011.54 1011.52 1011.43 1011.64 1011.60
1027.16 1026.86 1026.49 1026.20 1025.79 1025.44 1025.13 1024.79 1024.69 1024.83 1024.36 1023.73 1023.10 1022.41 1021.69 1020.71 1019.77 1019.04 1018.41 1017.72 1017.24 1016.95 1016.76 1016.44 1015.91 1015.19 1014.79 1014.35 1014.28 1014.52 1014.65 1014.82 1014.72 1014.73 1014.23 1013.63 1012.41 1012.01 1011.74 1011.69 1011.29 1011.27 1011.55
1027.10 1026.79 1026.48 1026.19 1025.84 1025.50 1025.19 1024.83 1025.05 1024.88 1024.34 1023.81 1023.16 1022.51 1021.60 1020.76 1019.69 1018.92 1018.13 1017.18 1016.90 1016.76 1016.59 1016.30 1015.80 1015.20 1014.66 1014.41 1014.35 1014.53 1014.70 1014.78 1014.71 1014.61 1014.39 1014.13 1013.79 1012.62 1012.09 1011.77 1011.48 1011.37 1011.26
Wind_Speed
5 4 12 13 16 18 19 20 21 21 21 22 21 21 21 20 20 19 18 18 17 16 17 16 16 17 18 18 16 15 15 13 13 9 6 6 5 6 5 3 2 3 3
3 5 12 13 15 16 18 19 20 21 22 22 21 20 20 19 19 20 20 18 18 18 16 17 15 17 18 18 18 16 15 15 12 12 8 5 7 9 9 8 6 3 4
5 6 6 14 16 18 18 19 20 20 20 21 21 22 22 20 20 20 21 21 20 19 18 16 16 15 17 19 19 18 16 14 14 11 11 5 5 12 13 12 10 8 7
5 5 6 15 17 17 18 19 19 19 19 21 22 22 22 22 22 22 21 21 20 20 19 18 16 16 16 17 20 18 18 16 13 13 5 6 8 14 15 16 14 12 10
6 6 7 15 17 17 19 19 20 20 20 21 20 20 20 21 22 23 22 20 22 23 22 21 19 19 16 17 18 20 17 17 15 12 6 7 6 13 18 18 16 14 12
7 7 10 16 18 19 19 19 20 19 20 19 21 21 20 20 19 21 21 21 21 21 23 22 21 20 17 19 18 21 19 18 16 7 6 8 10 15 18 15 15 14 14
6 7 7 17 18 20 20 21 21 19 21 18 18 21 21 21 22 22 22 20 20 20 20 22 23 21 21 20 21 21 20 21 9 7 7 7 9 20 16 14 17 17 15
7 7 7 15 18 19 21 21 21 22 22 23 22 22 22 22 23 24 24 24 24 21 20 19 20 22 22 22 22 20 22 20 11 4 9 8 15 21 20 14 17 16 15
7 7 6 7 12 17 19 20 21 22 22 21 21 23 22 23 21 22 22 22 23 22 22 23 22 20 22 24 23 21 22 18 13 3 8 8 16 21 17 12 18 16 15
7 7 6 6 6 7 7 17 20 21 18 18 19 20 21 19 20 19 19 20 23 25 24 23 20 21 23 23 23 24 21 21 6 5 6 7 21 20 12 8 8 15 16
7 5 6 6 7 7 7 10 11 17 16 11 11 16 13 6 9 13 19 21 21 22 23 24 24 24 23 20 21 22 22 4 4 5 7 18 23 22 16 8 7 8 12
7 6 6 7 6 5 6 6 5 7 5 4 5 6 4 6 6 13 13 19 20 21 21 21 22 22 17 10 9 15 6 7 5 7 7 21 23 20 13 9 10 8 10
4 5 6 5 5 6 4 3 3 3 3 4 7 5 5 5 4 5 4 4 4 13 6 11 9 7 10 7 9 10 9 7 5 6 11 21 21 20 14 10 8 12 10
6 6 7 6 5 5 3 4 4 4 3 3 4 4 4 3 4 5 5 5 4 6 8 8 6 8 10 10 9 9 11 6 4 4 6 17 21 21 13 10 10 11 13
7 6 7 7 6 6 5 5 5 4 3 4 5 6 5 5 5 5 6 6 6 7 7 7 8 8 9 9 10 9 11 11 9 4 3 14 19 14 13 11 11 11 15
7 7 7 7 7 6 5 6 5 4 4 4 5 5 9 5 4 6 7 8 7 7 7 8 8 9 8 8 9 9 9 10 10 8 5 5 14 18 16 12 12 9 9
4 5 7 7 6 7 7 5 4 4 5 4 5 6 8 10 5 6 6 8 6 9 10 8 9 8 8 9 10 9 7 8 10 11 7 4 6 12 16 13 13 14 10
5 6 7 6 7 7 6 5 4 4 5 4 6 5 13 11 7 9 7 6 8 8 8 7 8 7 7 8 8 8 7 6 7 10 10 5 3 4 9 13 14 16 14
6 7 7 7 7 7 6 5 5 6 6 6 6 6 12 11 11 7 6 7 8 8 7 8 7 8 7 8 9 8 7 5 7 9 10 9 5 5 4 10 13 15 15
7 7 7 6 7 7 4 4 3 3 4 4 5 10 13 10 13 9 7 8 6 7 7 9 9 6 8 7 9 10 9 8 5 5 6 8 5 4 6 6 3 3 10
7 7 7 7 6 4 3 4 2 3 3 3 6 10 11 11 11 10 7 8 7 6 9 10 8 9 8 6 4 8 8 8 7 5 4 5 6 4 4 4 4 3 3
6 7 7 7 5 5 3 3 2 3 4 3 3 4 7 11 10 11 9 8 8 6 9 10 10 5 3 5 3 2 4 5 5 5 4 5 6 4 2 4 5 6 5
7 7 7 7 7 6 6 4 3 3 3 3 4 4 5 9 8 9 11 10 8 8 6 8 9 11 5 3 5 3 3 3 6 4 4 3 5 2 3 2 5 5 6
6 6 7 7 7 7 7 5 5 4 6 3 4 5 6 9 9 9 10 10 12 8 7 6 8 8 5 5 3 5 3 3 2 5 4 4 5 5 3 2 2 4 6
6 6 6 6 7 7 7 7 5 5 5 6 6 8 11 10 9 10 12 12 10 6 6 8 9 8 5 5 4 2 3 3 3 3 3 6 5 3 4 3 4 2 4
5 6 6 7 7 7 7 8 7 6 7 7 9 8 8 8 8 12 16 11 7 6 5 6 8 10 4 3 1 2 2 1 1 1 2 2 4 5 5 4 2 3 2
Wind_Direction
318 347 15 8 359 356 354 352 350 347 346 344 342 339 335 333 330 329 329 329 328 329 330 330 330 328 330 335 335 335 336 326 315 296 281 289 293 284 262 233 261 287 257
338 22 18 360 359 353 353 352 350 347 345 342 340 336 334 329 328 326 323 319 318 319 320 322 327 328 327 323 329 325 326 326 327 309 287 269 267 260 255 240 228 254 180
2 36 31 359 355 352 352 350 349 346 342 338 336 333 330 328 326 323 319 316 313 309 308 309 313 318 321 321 317 324 315 318 319 325 296 257 248 258 247 233 219 209 207
24 36 11 358 351 350 350 349 347 344 342 344 340 339 336 333 330 323 316 312 309 309 305 304 303 308 313 318 313 309 318 309 309 312 313 264 254 257 249 232 215 210 206
35 36 2 352 348 347 347 347 344 342 343 347 340 339 339 336 331 328 321 318 317 312 308 305 304 301 301 307 310 305 300 311 315 310 303 292 262 268 272 221 209 210 207
32 30 11 358 349 349 345 346 341 340 341 344 340 341 335 332 336 333 322 323 316 308 306 300 297 295 298 300 304 300 295 295 318 316 298 294 293 275 262 234 212 200 203
34 30 20 6 354 348 346 345 338 340 341 348 346 338 338 335 342 332 333 326 319 306 302 300 306 299 296 296 295 294 290 288 292 319 315 304 290 287 276 252 213 204 201
46 29 34 21 4 358 350 344 339 347 349 346 348 348 338 350 347 336 335 330 327 323 312 305 296 292 293 290 289 287 287 286 287 316 314 303 297 304 274 243 218 215 205
30 28 29 22 24 11 1 344 348 350 342 345 352 342 343 349 342 349 328 332 319 325 319 312 308 299 297 292 283 279 279 278 280 284 299 296 294 301 274 265 223 219 210
15 23 21 31 22 11 351 359 349 346 344 347 346 343 343 346 335 332 338 329 328 322 328 331 310 301 294 289 286 288 278 277 280 309 293 286 285 280 278 267 248 228 232
6 21 24 30 19 13 356 352 352 344 338 346 342 329 336 317 323 322 335 331 331 332 324 328 331 332 326 311 287 292 295 298 264 272 277 274 276 276 255 254 257 256 240
2 359 36 29 21 19 353 350 326 317 308 290 285 285 302 300 301 327 327 328 332 327 333 322 327 328 332 334 322 296 287 282 283 271 260 266 264 257 240 244 249 257 257
348 14 12 24 11 1 334 310 303 292 298 292 315 312 304 304 289 307 299 302 302 314 315 318 322 320 319 322 323 315 278 265 256 259 259 264 267 251 239 227 246 244 250
6 1 2 6 6 337 331 313 293 297 329 341 324 343 317 316 308 317 308 307 301 309 309 309 306 305 309 311 312 313 311 273 253 242 256 274 290 252 234 236 235 247 233
2 354 357 351 351 352 347 320 319 336 351 345 343 326 328 317 328 329 313 313 313 307 304 304 304 304 305 307 307 308 314 314 298 280 258 278 293 236 221 229 239 244 235
351 359 356 341 6 358 352 336 338 357 351 1 330 319 334 318 341 337 325 320 306 316 307 299 296 296 294 298 302 302 308 312 304 296 288 280 269 267 239 228 228 227 186
351 4 359 360 14 1 346 339 359 343 0 342 333 322 341 346 336 336 323 322 322 314 303 300 296 290 292 296 301 303 301 308 315 307 284 268 269 272 241 222 229 220 219
31 10 358 2 350 349 338 347 345 341 334 335 339 1 352 335 328 339 319 327 321 310 305 299 299 293 288 293 299 299 293 288 318 314 310 282 253 252 247 233 220 232 210
30 14 355 353 350 338 354 341 344 355 352 0 343 7 343 336 329 317 316 316 332 319 311 299 301 302 288 289 295 293 298 306 303 309 307 301 296 268 225 240 216 233 217
31 13 355 349 357 346 340 332 354 359 352 335 330 357 348 327 323 321 319 325 317 322 316 312 309 291 298 274 289 295 299 282 265 265 292 305 301 309 254 198 219 205 220
21 10 347 351 348 347 325 341 335 344 324 311 0 355 337 320 323 324 323 318 309 304 314 310 299 294 294 282 267 292 282 275 252 237 263 283 287 279 283 217 167 151 201
11 357 344 348 347 338 326 320 300 290 285 286 308 325 307 325 322 323 317 311 308 305 310 316 317 301 284 288 261 300 310 327 353 258 239 260 273 269 229 243 188 162 183
360 347 343 344 343 330 332 326 306 289 293 310 323 302 295 316 307 312 306 304 306 303 302 310 308 293 290 271 223 249 309 338 333 334 319 275 275 261 266 184 231 192 177
335 339 343 345 340 337 339 345 340 331 342 315 319 302 308 306 302 297 297 313 319 303 308 306 309 309 304 254 272 214 261 307 347 328 330 345 346 279 250 263 296 228 190
334 343 342 343 340 338 347 344 356 1 333 335 331 332 325 308 312 314 324 316 314 311 303 310 308 307 278 272 194 150 227 249 261 250 311 328 340 5 5 301 266 215 239
339 358 344 349 333 342 349 339 30 4 346 348 337 332 326 310 331 343 339 322 307 316 323 315 307 306 305 30 128 162 248 301 16 304 249 315 318 310 322 313 309 262 200